Weather History for YBPN - February, 2014

Change the Weather History Date:

Saturday, February 1, 2014

  Actual Average Record
Temperature  
Mean Temperature 80 °F -  
Max Temperature 87 °F - - ()
Min Temperature 72 °F - - ()
Cooling Degree Days 14    
Growing Degree Days 30 (Base 50)    
Moisture  
Dew Point 74 °F    
Average Humidity 83    
Maximum Humidity 100    
Minimum Humidity 61    
Precipitation  
Precipitation 3.82 in - - ()
Sea Level Pressure  
Sea Level Pressure 29.59 in    
Wind  
Wind Speed 4 mph ()    
Max Wind Speed 14 mph    
Max Gust Speed -    
Visibility 6.4 miles    
Events      
T = Trace of Precipitation, MM = Missing Value Source: Averaged Metar Reports

Daily Weather History Graph

Daily Weather History Graph

Search for Another Location

Airport or City:

Trip Planner

Search our weather history database for the weather conditions in past years. The results will help you decide how hot, cold, wet, or windy it might be!

Date:

Astronomy

Feb. 01, 2014 Rise Set
Actual Time 5:48 AM AEST 6:49 PM AEST
Civil Twilight 5:25 AM AEST 7:12 PM AEST
Nautical Twilight 4:57 AM AEST 7:40 PM AEST
Astronomical Twilight 4:29 AM AEST 8:08 PM AEST
Moon 6:55 AM AEST 7:44 PM AEST
Length of Visible Light 13h 47m
Length of Day
13h 00m
New Moon, 2% of the Moon is Illuminated
Feb 1
New Moon
Feb 7
First Quarter
Feb 15
Full
Feb 23
Last Quarter
Mar 1
New

Hourly Weather History & Observations

Time (AEST) Temp. Heat Index Dew Point Humidity Pressure Visibility Wind Dir Wind Speed Gust Speed Precip Events Conditions
12:00 AM 74 °F - 73 °F 94% 29.62 in - Calm Calm - -   Overcast
12:03 AM 73.4 °F - 71.6 °F 94% 29.62 in 6.2 mi Calm Calm - N/A   Mostly Cloudy
1:00 AM 73.4 °F - 71.6 °F 94% 29.59 in 6.2 mi SSW 2.3 mph - N/A   Overcast
2:00 AM 73.4 °F - 73.4 °F 100% 29.59 in 6.2 mi SSW 3.5 mph - N/A   Overcast
3:00 AM 74 °F - 72 °F 94% 29.58 in - Calm Calm - -   Overcast
3:00 AM 73.4 °F - 73.4 °F 100% 29.56 in 6.2 mi Calm Calm - N/A   Overcast
4:00 AM 73.4 °F - 71.6 °F 94% 29.56 in 6.2 mi Calm Calm - N/A   Unknown
5:00 AM 73.4 °F - 71.6 °F 94% 29.56 in 6.2 mi Calm Calm - N/A   Overcast
6:00 AM 73 °F - 72 °F 97% 29.60 in - Calm Calm - -   Overcast
6:00 AM 73.4 °F - 71.6 °F 94% 29.59 in 6.2 mi Calm Calm - N/A   Mostly Cloudy
7:00 AM 73.4 °F - 73.4 °F 100% 29.59 in 6.2 mi Calm Calm - N/A   Overcast
8:00 AM 78.8 °F - 73.4 °F 83% 29.62 in 6.2 mi South 2.3 mph - N/A   Scattered Clouds
9:00 AM 82 °F - 73 °F 69% 29.63 in - East 3.5 mph - -  
9:00 AM 82.4 °F 88.2 °F 73.4 °F 74% 29.62 in 6.2 mi East 3.5 mph - N/A   Unknown
10:00 AM 84.2 °F 90.9 °F 73.4 °F 70% 29.62 in 6.2 mi SE 5.8 mph - N/A   Mostly Cloudy
11:00 AM 86.0 °F 93.4 °F 73.4 °F 66% 29.59 in 6.2 mi ESE 9.2 mph - N/A   Overcast
12:00 PM 86 °F - 75 °F 63% 29.60 in - ESE 9.2 mph - -  
12:00 PM 86.0 °F 93.4 °F 73.4 °F 66% 29.59 in 6.2 mi ESE 9.2 mph - N/A   Scattered Clouds
1:00 PM 86.0 °F 91.8 °F 71.6 °F 62% 29.56 in 6.2 mi ESE 10.4 mph - N/A   Unknown
2:00 PM 87.8 °F 97.6 °F 75.2 °F 66% 29.56 in 6.2 mi ESE 10.4 mph - N/A   Unknown
3:00 PM 86 °F - 74 °F 61% 29.55 in 16 mi ESE 12.7 mph - -   Partly Cloudy
3:00 PM 86.0 °F 95.1 °F 75.2 °F 70% 29.53 in 6.2 mi ESE 12.7 mph - N/A   Mostly Cloudy
4:00 PM 84.2 °F 92.3 °F 75.2 °F 74% 29.53 in 6.2 mi ESE 13.8 mph - N/A   Mostly Cloudy
5:00 PM 82.4 °F 89.5 °F 75.2 °F 79% 29.56 in 6.2 mi ESE 12.7 mph - N/A   Overcast
6:00 PM 82 °F - 75 °F 73% 29.58 in - ESE 8.1 mph - -   Overcast
6:00 PM 82.4 °F 89.5 °F 75.2 °F 79% 29.56 in 6.2 mi ESE 8.1 mph - N/A   Overcast
7:00 PM 80.6 °F 87.1 °F 77.0 °F 89% 29.59 in 6.2 mi East 8.1 mph - N/A   Overcast
8:00 PM 80.6 °F 87.1 °F 77.0 °F 89% 29.62 in 6.2 mi East 6.9 mph - N/A   Overcast
9:00 PM 79 °F - 76 °F 87% 29.65 in - East 10.4 mph - -   Overcast
9:00 PM 78.8 °F - 75.2 °F 89% 29.65 in 6.2 mi East 10.4 mph - N/A   Overcast
10:00 PM 77.0 °F - 77.0 °F 100% 29.65 in - ESE 12.7 mph - N/A   Overcast
11:00 PM 77.0 °F - 77.0 °F 100% 29.65 in 0.6 mi SE 10.4 mph - N/A   Overcast